• In Romania
  • List of Countries
  • For 7 days
  • Water Temperature
  • Satellite Maps
  • Weather Map
  • Weather Widgets
  • user-avatar
    Login

    Hourly Weather Kurumoch

    Today, 23 October, Tuesday

    Time Temperature Precipitation Wind Pressure Humidity
    00:00 +4°C° 0 mm 4 mps 761 mmHg 65%
    01:00 +4°C° 0 mm 4 mps 761 mmHg 64%
    02:00 +5°C° 0 mm 4 mps 760 mmHg 63%
    03:00 +4°C° 0 mm 4 mps 760 mmHg 64%
    04:00 +5°C° 0 mm 4 mps 760 mmHg 64%
    05:00 +5°C° 0 mm 4 mps 759 mmHg 63%
    06:00 +5°C° 0 mm 4 mps 759 mmHg 62%
    07:00 +5°C° 0 mm 5 mps 758 mmHg 60%
    08:00 +6°C° 0 mm 5 mps 758 mmHg 58%
    09:00 +6°C° 0 mm 5 mps 758 mmHg 56%
    10:00 +7°C° 0.1 mm 5 mps 757 mmHg 53%
    11:00 +7°C° 0.1 mm 6 mps 756 mmHg 50%
    12:00 +8°C° 0.1 mm 6 mps 756 mmHg 48%
    13:00 +8°C° 0.1 mm 6 mps 755 mmHg 48%
    14:00 +8°C° 0.1 mm 6 mps 754 mmHg 49%
    15:00 +8°C° 0.1 mm 6 mps 753 mmHg 50%
    16:00 +8°C° 0.1 mm 6 mps 753 mmHg 55%
    17:00 +7°C° 0.1 mm 6 mps 752 mmHg 59%
    18:00 +7°C° 0.1 mm 6 mps 752 mmHg 64%
    19:00 +7°C° 0 mm 6 mps 751 mmHg 66%
    20:00 +8°C° 0 mm 6 mps 750 mmHg 67%
    21:00 +8°C° 0 mm 5 mps 750 mmHg 68%
    22:00 +8°C° 0 mm 5 mps 749 mmHg 70%
    23:00 +8°C° 0 mm 4 mps 749 mmHg 72%

    Tomorrow, 24 October, Wednesday

    Time Temperature Precipitation Wind Pressure Humidity
    00:00 +8°C° 0 mm 4 mps 749 mmHg 74%
    01:00 +8°C° 0 mm 4 mps 748 mmHg 75%
    02:00 +8°C° 0 mm 3 mps 748 mmHg 77%
    03:00 +8°C° 0 mm 3 mps 748 mmHg 78%
    04:00 +8°C° 0 mm 3 mps 748 mmHg 82%
    05:00 +7°C° 0 mm 3 mps 748 mmHg 86%
    06:00 +7°C° 0 mm 3 mps 747 mmHg 90%
    07:00 +8°C° 0 mm 3 mps 747 mmHg 88%
    08:00 +8°C° 0 mm 4 mps 747 mmHg 87%
    09:00 +9°C° 0 mm 5 mps 747 mmHg 85%
    10:00 +9°C° 0 mm 5 mps 747 mmHg 78%
    11:00 +10°C° 0 mm 5 mps 747 mmHg 71%
    12:00 +11°C° 0 mm 6 mps 747 mmHg 63%
    13:00 +12°C° 0 mm 5 mps 746 mmHg 61%
    14:00 +12°C° 0 mm 5 mps 746 mmHg 58%
    15:00 +12°C° 0 mm 4 mps 746 mmHg 56%
    16:00 +11°C° 0 mm 4 mps 746 mmHg 59%
    17:00 +11°C° 0 mm 4 mps 746 mmHg 62%
    18:00 +10°C° 0 mm 4 mps 746 mmHg 66%
    19:00 +10°C° 0 mm 4 mps 746 mmHg 68%
    20:00 +10°C° 0 mm 4 mps 746 mmHg 70%
    21:00 +9°C° 0 mm 5 mps 746 mmHg 72%
    22:00 +9°C° 0 mm 5 mps 745 mmHg 73%
    23:00 +9°C° 0 mm 5 mps 745 mmHg 74%

    Day after tomorrow, 25 October, Thursday

    Time Temperature Precipitation Wind Pressure Humidity
    00:00 +9°C° 0 mm 6 mps 745 mmHg 74%
    01:00 +9°C° 0.7 mm 6 mps 745 mmHg 78%
    02:00 +9°C° 0.7 mm 6 mps 744 mmHg 81%
    03:00 +9°C° 0.7 mm 6 mps 744 mmHg 85%
    04:00 +9°C° 0.8 mm 6 mps 744 mmHg 85%
    05:00 +10°C° 0.8 mm 6 mps 743 mmHg 86%
    06:00 +10°C° 0.8 mm 6 mps 743 mmHg 86%
    07:00 +10°C° 0.5 mm 7 mps 743 mmHg 82%
    08:00 +10°C° 0.5 mm 7 mps 742 mmHg 78%
    09:00 +11°C° 0.5 mm 8 mps 742 mmHg 74%
    10:00 +11°C° 0.1 mm 8 mps 742 mmHg 69%
    11:00 +12°C° 0.1 mm 7 mps 741 mmHg 64%
    12:00 +12°C° 0.1 mm 7 mps 741 mmHg 59%
    13:00 +14°C° 0 mm 6 mps 741 mmHg 61%
    14:00 +14°C° 0 mm 6 mps 740 mmHg 63%
    15:00 +14°C° 0 mm 5 mps 740 mmHg 65%
    16:00 +14°C° 0.3 mm 4 mps 739 mmHg 70%
    17:00 +13°C° 0.3 mm 4 mps 739 mmHg 75%
    18:00 +13°C° 0.3 mm 3 mps 739 mmHg 80%
    19:00 +13°C° 0.7 mm 3 mps 739 mmHg 83%
    20:00 +12°C° 0.7 mm 3 mps 739 mmHg 86%
    21:00 +12°C° 0.7 mm 3 mps 739 mmHg 89%
    22:00 +11°C° 1 mm 3 mps 739 mmHg 90%
    23:00 +11°C° 1 mm 3 mps 739 mmHg 91%

    26 October, Friday

    Time Temperature Precipitation Wind Pressure Humidity
    00:00 +11°C° 1 mm 3 mps 739 mmHg 92%
    01:00 +10°C° 1.1 mm 3 mps 740 mmHg 89%
    02:00 +9°C° 1.1 mm 3 mps 740 mmHg 87%
    03:00 +8°C° 1.1 mm 3 mps 740 mmHg 84%
    04:00 +8°C° 0.1 mm 3 mps 741 mmHg 83%
    05:00 +8°C° 0.1 mm 3 mps 741 mmHg 82%
    06:00 +7°C° 0.1 mm 3 mps 741 mmHg 81%
    07:00 +8°C° 0 mm 3 mps 742 mmHg 77%
    08:00 +7°C° 0 mm 4 mps 743 mmHg 73%
    09:00 +7°C° 0 mm 5 mps 743 mmHg 69%
    10:00 +8°C° 0 mm 5 mps 744 mmHg 65%
    11:00 +8°C° 0 mm 5 mps 744 mmHg 61%
    12:00 +9°C° 0 mm 5 mps 744 mmHg 58%
    13:00 +9°C° 0 mm 5 mps 745 mmHg 58%
    14:00 +9°C° 0 mm 5 mps 745 mmHg 58%
    15:00 +8°C° 0 mm 4 mps 745 mmHg 59%
    16:00 +8°C° 0.1 mm 4 mps 745 mmHg 62%
    17:00 +7°C° 0.1 mm 4 mps 746 mmHg 65%
    18:00 +8°C° 0.1 mm 3 mps 746 mmHg 69%
    19:00 +6°C° 0.1 mm 4 mps 747 mmHg 70%
    20:00 +5°C° 0.1 mm 4 mps 747 mmHg 70%
    21:00 +5°C° 0.1 mm 4 mps 747 mmHg 71%
    22:00 +4°C° 0 mm 4 mps 748 mmHg 74%
    23:00 +4°C° 0 mm 3 mps 748 mmHg 76%

    27 October, Saturday

    Time Temperature Precipitation Wind Pressure Humidity
    00:00 +3°C° 0 mm 3 mps 749 mmHg 78%
    01:00 +3°C° 0 mm 3 mps 749 mmHg 79%
    02:00 +2°C° 0 mm 3 mps 749 mmHg 80%
    03:00 +2°C° 0 mm 3 mps 750 mmHg 81%
    04:00 +1°C° 0 mm 3 mps 750 mmHg 81%
    05:00 +1°C° 0 mm 3 mps 750 mmHg 81%
    06:00 +1°C° 0 mm 3 mps 751 mmHg 81%
    07:00 +1°C° 0 mm 4 mps 751 mmHg 77%
    08:00 +1°C° 0 mm 4 mps 751 mmHg 73%
    09:00 +2°C° 0 mm 5 mps 751 mmHg 69%
    10:00 +3°C° 0 mm 5 mps 751 mmHg 66%
    11:00 +5°C° 0 mm 5 mps 752 mmHg 64%
    12:00 +4°C° 0 mm 6 mps 752 mmHg 62%
    13:00 +5°C° 0 mm 5 mps 752 mmHg 63%
    14:00 +5°C° 0 mm 5 mps 753 mmHg 64%
    15:00 +5°C° 0 mm 5 mps 753 mmHg 65%
    16:00 +3°C° 0 mm 5 mps 754 mmHg 66%
    17:00 +3°C° 0 mm 4 mps 754 mmHg 68%
    18:00 +3°C° 0 mm 4 mps 755 mmHg 70%
    19:00 +3°C° 0 mm 4 mps 755 mmHg 71%
    20:00 +1°C° 0 mm 4 mps 755 mmHg 73%
    21:00 +1°C° 0 mm 4 mps 756 mmHg 75%
    22:00 +1°C° 0 mm 4 mps 756 mmHg 77%
    23:00 +1°C° 0 mm 4 mps 756 mmHg 78%

    28 October, Sunday

    Time Temperature Precipitation Wind Pressure Humidity
    00:00 0°C° 0 mm 4 mps 756 mmHg 80%
    01:00 +1°C° 0 mm 5 mps 756 mmHg 79%
    02:00 +1°C° 0 mm 6 mps 755 mmHg 78%
    03:00 +2°C° 0 mm 7 mps 755 mmHg 78%
    04:00 +2°C° 0.1 mm 7 mps 754 mmHg 77%
    05:00 +2°C° 0.1 mm 8 mps 753 mmHg 76%
    06:00 +2°C° 0.1 mm 9 mps 753 mmHg 75%
    07:00 +3°C° 0.5 mm 9 mps 752 mmHg 77%
    08:00 +3°C° 0.5 mm 9 mps 752 mmHg 79%
    09:00 +5°C° 0.5 mm 9 mps 752 mmHg 81%
    10:00 +5°C° 1.3 mm 9 mps 752 mmHg 83%
    11:00 +6°C° 1.3 mm 8 mps 752 mmHg 85%
    12:00 +6°C° 1.3 mm 8 mps 751 mmHg 87%
    13:00 +8°C° 0.5 mm 7 mps 751 mmHg 87%
    14:00 +9°C° 0.5 mm 7 mps 752 mmHg 87%
    15:00 +9°C° 0.5 mm 7 mps 752 mmHg 86%
    16:00 +9°C° 0.1 mm 6 mps 752 mmHg 83%
    17:00 +9°C° 0.1 mm 6 mps 753 mmHg 81%
    18:00 +8°C° 0.1 mm 6 mps 754 mmHg 78%
    19:00 +8°C° 0 mm 6 mps 755 mmHg 78%
    20:00 +7°C° 0 mm 5 mps 755 mmHg 78%
    21:00 +6°C° 0 mm 5 mps 756 mmHg 78%
    22:00 +6°C° 0 mm 4 mps 757 mmHg 77%
    23:00 +5°C° 0 mm 4 mps 758 mmHg 76%

    29 October, Monday

    Time Temperature Precipitation Wind Pressure Humidity
    00:00 +5°C° 0 mm 4 mps 758 mmHg 75%
    01:00 +5°C° 0 mm 4 mps 759 mmHg 75%
    02:00 +4°C° 0 mm 3 mps 760 mmHg 75%
    03:00 +4°C° 0 mm 3 mps 760 mmHg 75%
    04:00 +3°C° 0 mm 3 mps 761 mmHg 76%
    05:00 +4°C° 0 mm 2 mps 761 mmHg 77%
    06:00 +4°C° 0 mm 2 mps 762 mmHg 77%
    07:00 +4°C° 0 mm 2 mps 762 mmHg 74%
    08:00 +4°C° 0 mm 2 mps 763 mmHg 71%
    09:00 +5°C° 0 mm 2 mps 763 mmHg 67%
    10:00 +5°C° 0 mm 2 mps 763 mmHg 64%
    11:00 +6°C° 0 mm 1 mps 764 mmHg 60%
    12:00 +7°C° 0 mm 1 mps 764 mmHg 56%
    13:00 +7°C° 0 mm 1 mps 764 mmHg 56%
    14:00 +7°C° 0 mm 1 mps 764 mmHg 55%
    15:00 +7°C° 0 mm 1 mps 765 mmHg 54%
    16:00 +7°C° 0.1 mm 1 mps 765 mmHg 58%
    17:00 +7°C° 0.1 mm 1 mps 765 mmHg 62%
    18:00 +5°C° 0.1 mm 2 mps 765 mmHg 65%
    19:00 +5°C° 0.1 mm 2 mps 765 mmHg 67%
    20:00 +4°C° 0.1 mm 3 mps 765 mmHg 69%
    21:00 +4°C° 0.1 mm 3 mps 766 mmHg 71%
    22:00 +4°C° 0 mm 3 mps 766 mmHg 72%
    23:00 +4°C° 0 mm 3 mps 766 mmHg 74%
    Show more